Location: Malvern Link
(52.1333°N, 2.3000°W)
Time: 09:39:42
(UTC+00:00)

DIWATA 2B (PO-101) - Pass Details

Date: 04 July 2022
Orbit: 583 x 599 km, 98.0° (Epoch: 14 August)

Event Time Altitude Azimuth Distance (km) Brightness Sun altitude
Exits shadow 00:28:22 - 119° (ESE) 2,746 ? -14.9°
Reaches altitude 10° 00:30:47 10° 103° (ESE) 1,944 ? -14.9°
Maximum altitude 00:33:43 19° 58° (ENE) 1,464 ? -14.8°
Drops below altitude 10° 00:36:40 10° 14° (NNE) 1,952 ? -14.8°
Sets 00:39:21 0° 357° (N) 2,859 ? -14.8°
